Hourly Data Report for April 02, 2021

TORONTO CITY
ONTARIO
Current Station Operator: ECCC - MSC

43°40'00.000" N
79°24'00.000" W
112.50 m
6158355
71508
XTO

Download Data

Hourly Data (April 2021)
Hourly Data Report for April 2, 2021
TIME
LST
Temp Definition
°C
Dew Point Definition
°C
Rel Hum Definition
%
Precip. Amount Definition
mm

Wind Dir Definition
10's deg

Wind Spd Definition
km/h
Visibility Definition
km
Stn Press Definition
kPa
Hmdx Definition


Wind Chill Definition


Weather Definition


00:00 -1.2 -17.1 29 0.0       101.19     LegendNANA
01:00 -1.5 -16.9 30 0.0       101.19     LegendNANA
02:00 -1.9 -17.2 30 0.0       101.21     LegendNANA
03:00 -2.2 -17.2 30 0.0       101.23     LegendNANA
04:00 -2.7 -16.7 33 0.0       101.29     LegendNANA
05:00 -3.0 -16.4 35 0.0       101.36     LegendNANA
06:00 -3.4 -16.5 36 0.0       101.43     LegendNANA
07:00 -3.3 -16.6 35 0.0       101.52     LegendNANA
08:00 -1.9 -17.2 30 0.0       101.57     LegendNANA
09:00 -0.5 -17.8 26 0.0       101.59     LegendNANA
10:00 1.0 -17.2 24 0.0       101.63     LegendNANA
11:00 1.9 -17.5 22 0.0       101.61     LegendNANA
12:00 3.7 -14.1 26 0.0       101.55     LegendNANA
13:00 3.4 -15.3 24 0.0       101.51     LegendNANA
14:00 3.5 -14.8 25 0.0       101.43     LegendNANA
15:00 3.8 -15.7 23 0.0       101.37     LegendNANA
16:00 3.5 -16.1 22 0.0       101.36     LegendNANA
17:00 3.5 -15.5 23 0.0       101.35     LegendNANA
18:00 2.6 -16.2 24 0.0       101.37     LegendNANA
19:00 1.5 -17.1 24 0.0       101.40     LegendNANA
20:00 1.1 -16.3 26 0.0       101.39     LegendNANA
21:00 0.8 -15.2 29 0.0       101.41     LegendNANA
22:00 0.0 -13.6 35 0.0       101.40     LegendNANA
23:00 -0.6 -13.4 37 0.0       101.39     LegendNANA

Notes on Data Quality.

Legend

  • E = Estimated
  • M = Missing
  • NA = Not Available*
  • [empty] = Indicates an unobserved value
Date modified: